Year,Month,Day,Hour,Minute,Value (Times are PST for temperature in C)
2018,06,24,00,00,12.30
2018,06,24,00,01,12.30
2018,06,24,00,02,12.30
2018,06,24,00,03,12.30
2018,06,24,00,04,12.30
2018,06,24,00,05,12.30
2018,06,24,00,06,12.30
2018,06,24,00,07,12.30
2018,06,24,00,08,12.20
2018,06,24,00,09,12.20
2018,06,24,00,10,12.20
2018,06,24,00,11,12.20
2018,06,24,00,12,12.20
2018,06,24,00,13,12.20
2018,06,24,00,14,12.20
2018,06,24,00,15,12.20
2018,06,24,00,16,12.20
2018,06,24,00,17,12.10
2018,06,24,00,18,12.10
2018,06,24,00,19,12.10
2018,06,24,00,20,12.10
2018,06,24,00,21,12.10
2018,06,24,00,22,12.10
2018,06,24,00,23,12.10
2018,06,24,00,24,12.10
2018,06,24,00,25,12.10
2018,06,24,00,26,12.00
2018,06,24,00,27,12.00
2018,06,24,00,28,12.00
2018,06,24,00,29,12.00
2018,06,24,00,30,11.90
2018,06,24,00,31,11.90
2018,06,24,00,32,11.90
2018,06,24,00,33,11.90
2018,06,24,00,34,11.90
2018,06,24,00,35,11.90
2018,06,24,00,36,11.90
2018,06,24,00,37,11.80
2018,06,24,00,38,11.80
2018,06,24,00,39,11.80
2018,06,24,00,40,11.80
2018,06,24,00,41,11.80
2018,06,24,00,42,11.80
2018,06,24,00,43,11.80
2018,06,24,00,44,11.80
2018,06,24,00,45,11.70
2018,06,24,00,46,11.70
2018,06,24,00,47,11.70
2018,06,24,00,48,11.70
2018,06,24,00,49,11.70
2018,06,24,00,50,11.70
2018,06,24,00,51,11.70
2018,06,24,00,52,11.70
2018,06,24,00,53,11.70
2018,06,24,00,54,11.70
2018,06,24,00,55,11.60
2018,06,24,00,56,11.70
2018,06,24,00,57,11.60
2018,06,24,00,58,11.60
2018,06,24,00,59,11.60
2018,06,24,01,00,11.60
2018,06,24,01,01,11.60
2018,06,24,01,02,11.60
2018,06,24,01,03,11.60
2018,06,24,01,04,11.60
2018,06,24,01,05,11.60
2018,06,24,01,06,11.60
2018,06,24,01,07,11.60
2018,06,24,01,08,11.60
2018,06,24,01,09,11.60
2018,06,24,01,10,11.60
2018,06,24,01,11,11.60
2018,06,24,01,12,11.60
2018,06,24,01,13,11.60
2018,06,24,01,14,11.60
2018,06,24,01,15,11.60
2018,06,24,01,16,11.60
2018,06,24,01,17,11.60
2018,06,24,01,18,11.60
2018,06,24,01,19,11.60
2018,06,24,01,20,11.60
2018,06,24,01,21,11.60
2018,06,24,01,22,11.60
2018,06,24,01,23,11.60
2018,06,24,01,24,11.60
2018,06,24,01,25,11.60
2018,06,24,01,26,11.60
2018,06,24,01,27,11.60
2018,06,24,01,28,11.60
2018,06,24,01,29,11.60
2018,06,24,01,30,11.60
2018,06,24,01,31,11.50
2018,06,24,01,32,11.60
2018,06,24,01,33,11.50
2018,06,24,01,34,11.50
2018,06,24,01,35,11.50
2018,06,24,01,36,11.50
2018,06,24,01,37,11.50
2018,06,24,01,38,11.50
2018,06,24,01,39,11.50
2018,06,24,01,40,11.40
2018,06,24,01,41,11.40
2018,06,24,01,42,11.40
2018,06,24,01,43,11.40
2018,06,24,01,44,11.40
2018,06,24,01,45,11.40
2018,06,24,01,46,11.40
2018,06,24,01,47,11.40
2018,06,24,01,48,11.30
2018,06,24,01,49,11.30
2018,06,24,01,50,11.30
2018,06,24,01,51,11.30
2018,06,24,01,52,11.30
2018,06,24,01,53,11.30
2018,06,24,01,54,11.30
2018,06,24,01,55,11.30
2018,06,24,01,56,11.30
2018,06,24,01,57,11.30
2018,06,24,01,58,11.30
2018,06,24,01,59,11.30
2018,06,24,02,00,11.20
2018,06,24,02,01,11.20
2018,06,24,02,02,11.20
2018,06,24,02,03,11.20
2018,06,24,02,04,11.20
2018,06,24,02,05,11.20
2018,06,24,02,06,11.20
2018,06,24,02,07,11.20
2018,06,24,02,08,11.10
2018,06,24,02,09,11.10
2018,06,24,02,10,11.10
2018,06,24,02,11,11.10
2018,06,24,02,12,11.10
2018,06,24,02,13,11.10
2018,06,24,02,14,11.10
2018,06,24,02,15,11.10
2018,06,24,02,16,11.00
2018,06,24,02,17,11.00
2018,06,24,02,18,11.00
2018,06,24,02,19,10.90
2018,06,24,02,20,10.90
2018,06,24,02,21,10.90
2018,06,24,02,22,10.90
2018,06,24,02,23,10.90
2018,06,24,02,24,10.90
2018,06,24,02,25,10.80
2018,06,24,02,26,10.80
2018,06,24,02,27,10.80
2018,06,24,02,28,10.80
2018,06,24,02,29,10.80
2018,06,24,02,30,10.70
2018,06,24,02,31,10.70
2018,06,24,02,32,10.70
2018,06,24,02,33,10.70
2018,06,24,02,34,10.60
2018,06,24,02,35,10.60
2018,06,24,02,36,10.60
2018,06,24,02,37,10.60
2018,06,24,02,38,10.60
2018,06,24,02,39,10.60
2018,06,24,02,40,10.60
2018,06,24,02,41,10.50
2018,06,24,02,42,10.50
2018,06,24,02,43,10.50
2018,06,24,02,44,10.50
2018,06,24,02,45,10.40
2018,06,24,02,46,10.40
2018,06,24,02,47,10.40
2018,06,24,02,48,10.40
2018,06,24,02,49,10.40
2018,06,24,02,50,10.30
2018,06,24,02,51,10.30
2018,06,24,02,52,10.30
2018,06,24,02,53,10.30
2018,06,24,02,54,10.30
2018,06,24,02,55,10.20
2018,06,24,02,56,10.20
2018,06,24,02,57,10.20
2018,06,24,02,58,10.20
2018,06,24,02,59,10.20
2018,06,24,03,00,10.20
2018,06,24,03,01,10.20
2018,06,24,03,02,10.10
2018,06,24,03,03,10.10
2018,06,24,03,04,10.10
2018,06,24,03,05,10.10
2018,06,24,03,06,10.10
2018,06,24,03,07,10.10
2018,06,24,03,08,10.10
2018,06,24,03,09,10.10
2018,06,24,03,10,10.10
2018,06,24,03,11,10.10
2018,06,24,03,12,10.00
2018,06,24,03,13,10.10
2018,06,24,03,14,10.00
2018,06,24,03,15,10.00
2018,06,24,03,16,10.00
2018,06,24,03,17,10.00
2018,06,24,03,18,10.00
2018,06,24,03,19,10.00
2018,06,24,03,20,10.00
2018,06,24,03,21,10.00
2018,06,24,03,22,10.00
2018,06,24,03,23,10.00
2018,06,24,03,24,10.00
2018,06,24,03,25,9.90
2018,06,24,03,26,10.00
2018,06,24,03,27,10.00
2018,06,24,03,28,9.90
2018,06,24,03,29,9.90
2018,06,24,03,30,9.90
2018,06,24,03,31,10.00
2018,06,24,03,32,10.00
2018,06,24,03,33,10.00
2018,06,24,03,34,10.00
2018,06,24,03,35,9.90
2018,06,24,03,36,9.90
2018,06,24,03,37,10.00
2018,06,24,03,38,9.90
2018,06,24,03,39,10.00
2018,06,24,03,40,10.00
2018,06,24,03,41,9.90
2018,06,24,03,42,9.90
2018,06,24,03,43,10.00
2018,06,24,03,44,10.00
2018,06,24,03,45,10.00
2018,06,24,03,46,10.00
2018,06,24,03,47,10.00
2018,06,24,03,48,10.10
2018,06,24,03,49,10.10
2018,06,24,03,50,10.10
2018,06,24,03,51,10.10
2018,06,24,03,52,10.10
2018,06,24,03,53,10.10
2018,06,24,03,54,10.10
2018,06,24,03,55,10.10
2018,06,24,03,56,10.10
2018,06,24,03,57,10.20
2018,06,24,03,58,10.10
2018,06,24,03,59,10.20
2018,06,24,04,00,10.20
2018,06,24,04,01,10.20
2018,06,24,04,02,10.20
2018,06,24,04,03,10.20
2018,06,24,04,04,10.20
2018,06,24,04,05,10.20
2018,06,24,04,06,10.20
2018,06,24,04,07,10.20
2018,06,24,04,08,10.20
2018,06,24,04,09,10.20
2018,06,24,04,10,10.20
2018,06,24,04,11,10.20
2018,06,24,04,12,10.20
2018,06,24,04,13,10.20
2018,06,24,04,14,10.20
2018,06,24,04,15,10.20
2018,06,24,04,16,10.20
2018,06,24,04,17,10.20
2018,06,24,04,18,10.20
2018,06,24,04,19,10.20
2018,06,24,04,20,10.20
2018,06,24,04,21,10.20
2018,06,24,04,22,10.20
2018,06,24,04,23,10.20
2018,06,24,04,24,10.20
2018,06,24,04,25,10.10
2018,06,24,04,26,10.10
2018,06,24,04,27,10.10
2018,06,24,04,28,10.10
2018,06,24,04,29,10.10
2018,06,24,04,30,10.10
2018,06,24,04,31,10.10
2018,06,24,04,32,10.10
2018,06,24,04,33,10.10
2018,06,24,04,34,10.10
2018,06,24,04,35,10.10
2018,06,24,04,36,10.10
2018,06,24,04,37,10.10
2018,06,24,04,38,10.10
2018,06,24,04,39,10.10
2018,06,24,04,40,10.10
2018,06,24,04,41,10.10
2018,06,24,04,42,10.10
2018,06,24,04,43,10.10
2018,06,24,04,44,10.10
2018,06,24,04,45,10.00
2018,06,24,04,46,10.00
2018,06,24,04,47,10.10
2018,06,24,04,48,10.10
2018,06,24,04,49,10.00
2018,06,24,04,50,10.10
2018,06,24,04,51,10.00
2018,06,24,04,52,10.00
2018,06,24,04,53,10.10
2018,06,24,04,54,10.10
2018,06,24,04,55,10.10
2018,06,24,04,56,10.10
2018,06,24,04,57,10.10
2018,06,24,04,58,10.10
2018,06,24,04,59,10.10
2018,06,24,05,00,10.10
2018,06,24,05,01,10.10
2018,06,24,05,02,10.10
2018,06,24,05,03,10.10
2018,06,24,05,04,10.10
2018,06,24,05,05,10.10
2018,06,24,05,06,10.10
2018,06,24,05,07,10.10
2018,06,24,05,08,10.10
2018,06,24,05,09,10.10
2018,06,24,05,10,10.10
2018,06,24,05,11,10.10
2018,06,24,05,12,10.10
2018,06,24,05,13,10.10
2018,06,24,05,14,10.10
2018,06,24,05,15,10.10
2018,06,24,05,16,10.10
2018,06,24,05,17,10.10
2018,06,24,05,18,10.10
2018,06,24,05,19,10.10
2018,06,24,05,20,10.10
2018,06,24,05,21,10.10
2018,06,24,05,22,10.10
2018,06,24,05,23,10.10
2018,06,24,05,24,10.10
2018,06,24,05,25,10.10
2018,06,24,05,26,10.10
2018,06,24,05,27,10.10
2018,06,24,05,28,10.10
2018,06,24,05,29,10.10
2018,06,24,05,30,10.10
2018,06,24,05,31,10.10
2018,06,24,05,32,10.10
2018,06,24,05,33,10.10
2018,06,24,05,34,10.10
2018,06,24,05,35,10.10
2018,06,24,05,36,10.10
2018,06,24,05,37,10.10
2018,06,24,05,38,10.10
2018,06,24,05,39,10.10
2018,06,24,05,40,10.10
2018,06,24,05,41,10.10
2018,06,24,05,42,10.10
2018,06,24,05,43,10.10
2018,06,24,05,44,10.10
2018,06,24,05,45,10.10
2018,06,24,05,46,10.10
2018,06,24,05,47,10.10
2018,06,24,05,48,10.10
2018,06,24,05,49,10.10
2018,06,24,05,50,10.10
2018,06,24,05,51,10.10
2018,06,24,05,52,10.10
2018,06,24,05,53,10.10
2018,06,24,05,54,10.10
2018,06,24,05,55,10.10
2018,06,24,05,56,10.10
2018,06,24,05,57,10.10
2018,06,24,05,58,10.10
2018,06,24,05,59,10.10
2018,06,24,06,00,10.10
2018,06,24,06,01,10.10
2018,06,24,06,02,10.10
2018,06,24,06,03,10.10
2018,06,24,06,04,10.10
2018,06,24,06,05,10.10
2018,06,24,06,06,10.10
2018,06,24,06,07,10.10
2018,06,24,06,08,10.10
2018,06,24,06,09,10.10
2018,06,24,06,10,10.10
2018,06,24,06,11,10.10
2018,06,24,06,12,10.10
2018,06,24,06,13,10.10
2018,06,24,06,14,10.20
2018,06,24,06,15,10.20
2018,06,24,06,16,10.20
2018,06,24,06,17,10.20
2018,06,24,06,18,10.20
2018,06,24,06,19,10.20
2018,06,24,06,20,10.20
2018,06,24,06,21,10.20
2018,06,24,06,22,10.30
2018,06,24,06,23,10.30
2018,06,24,06,24,10.30
2018,06,24,06,25,10.30
2018,06,24,06,26,10.40
2018,06,24,06,27,10.40
2018,06,24,06,28,10.50
2018,06,24,06,29,10.50
2018,06,24,06,30,10.60
2018,06,24,06,31,10.60
2018,06,24,06,32,10.60
2018,06,24,06,33,10.70
2018,06,24,06,34,10.70
2018,06,24,06,35,10.70
2018,06,24,06,36,10.70
2018,06,24,06,37,10.80
2018,06,24,06,38,10.80
2018,06,24,06,39,10.80
2018,06,24,06,40,10.80
2018,06,24,06,41,10.80
2018,06,24,06,42,10.80
2018,06,24,06,43,10.90
2018,06,24,06,44,10.90
2018,06,24,06,45,10.90
2018,06,24,06,46,10.90
2018,06,24,06,47,10.90
2018,06,24,06,48,10.90
2018,06,24,06,49,11.00
2018,06,24,06,50,11.00
2018,06,24,06,51,11.00
2018,06,24,06,52,11.00
2018,06,24,06,53,11.00
2018,06,24,06,54,11.10
2018,06,24,06,55,11.10
2018,06,24,06,56,11.10
2018,06,24,06,57,11.20
2018,06,24,06,58,11.20
2018,06,24,06,59,11.20
2018,06,24,07,00,11.30
2018,06,24,07,01,11.30
2018,06,24,07,02,11.30
2018,06,24,07,03,11.40
2018,06,24,07,04,11.50
2018,06,24,07,05,11.50
2018,06,24,07,06,11.60
2018,06,24,07,07,11.60
2018,06,24,07,08,11.60
2018,06,24,07,09,11.70
2018,06,24,07,10,11.70
2018,06,24,07,11,11.80
2018,06,24,07,12,11.80
2018,06,24,07,13,11.90
2018,06,24,07,14,11.90
2018,06,24,07,15,11.90
2018,06,24,07,16,12.00
2018,06,24,07,17,12.10
2018,06,24,07,18,12.20
2018,06,24,07,19,12.20
2018,06,24,07,20,12.30
2018,06,24,07,21,12.30
2018,06,24,07,22,12.40
2018,06,24,07,23,12.40
2018,06,24,07,24,12.40
2018,06,24,07,25,12.50
2018,06,24,07,26,12.50
2018,06,24,07,27,12.60
2018,06,24,07,28,12.60
2018,06,24,07,29,12.70
2018,06,24,07,30,12.70
2018,06,24,07,31,12.70
2018,06,24,07,32,12.70
2018,06,24,07,33,12.80
2018,06,24,07,34,12.80
2018,06,24,07,35,12.80
2018,06,24,07,36,12.90
2018,06,24,07,37,12.90
2018,06,24,07,38,12.90
2018,06,24,07,39,13.00
2018,06,24,07,40,13.00
2018,06,24,07,41,13.10
2018,06,24,07,42,13.10
2018,06,24,07,43,13.10
2018,06,24,07,44,13.10
2018,06,24,07,45,13.20
2018,06,24,07,46,13.20
2018,06,24,07,47,13.20
2018,06,24,07,48,13.30
2018,06,24,07,49,13.30
2018,06,24,07,50,13.30
2018,06,24,07,51,13.30
2018,06,24,07,52,13.40
2018,06,24,07,53,13.40
2018,06,24,07,54,13.40
2018,06,24,07,55,13.40
2018,06,24,07,56,13.40
2018,06,24,07,57,13.50
2018,06,24,07,58,13.50
2018,06,24,07,59,13.50
2018,06,24,08,00,13.60
2018,06,24,08,01,13.60
2018,06,24,08,02,13.60
2018,06,24,08,03,13.60
2018,06,24,08,04,13.60
2018,06,24,08,05,13.60
2018,06,24,08,06,13.60
2018,06,24,08,07,13.60
2018,06,24,08,08,13.60
2018,06,24,08,09,13.60
2018,06,24,08,10,13.70
2018,06,24,08,11,13.70
2018,06,24,08,12,13.70
2018,06,24,08,13,13.70
2018,06,24,08,14,13.70
2018,06,24,08,15,13.70
2018,06,24,08,16,13.70
2018,06,24,08,17,13.70
2018,06,24,08,18,13.70
2018,06,24,08,19,13.70
2018,06,24,08,20,13.70
2018,06,24,08,21,13.70
2018,06,24,08,22,13.70
2018,06,24,08,23,13.70
2018,06,24,08,24,13.70
2018,06,24,08,25,13.70
2018,06,24,08,26,13.70
2018,06,24,08,27,13.70
2018,06,24,08,28,13.70
2018,06,24,08,29,13.70
2018,06,24,08,30,13.70
2018,06,24,08,31,13.70
2018,06,24,08,32,13.70
2018,06,24,08,33,13.80
2018,06,24,08,34,13.80
2018,06,24,08,35,13.90
2018,06,24,08,36,13.90
2018,06,24,08,37,14.00
2018,06,24,08,38,14.10
2018,06,24,08,39,14.20
2018,06,24,08,40,14.30
2018,06,24,08,41,14.30
2018,06,24,08,42,14.40
2018,06,24,08,43,14.50
2018,06,24,08,44,14.60
2018,06,24,08,45,14.70
2018,06,24,08,46,14.80
2018,06,24,08,47,14.80
2018,06,24,08,48,14.90
2018,06,24,08,49,15.00
2018,06,24,08,50,15.00
2018,06,24,08,51,15.10
2018,06,24,08,52,15.20
2018,06,24,08,53,15.20
2018,06,24,08,54,15.30
2018,06,24,08,55,15.30
2018,06,24,08,56,15.30
2018,06,24,08,57,15.40
2018,06,24,08,58,15.40
2018,06,24,08,59,15.50
2018,06,24,09,00,15.60
2018,06,24,09,01,15.70
2018,06,24,09,02,15.70
2018,06,24,09,03,15.80
2018,06,24,09,04,15.90
2018,06,24,09,05,16.00
2018,06,24,09,06,16.10
2018,06,24,09,07,16.20
2018,06,24,09,08,16.30
2018,06,24,09,09,16.50
2018,06,24,09,10,16.60
2018,06,24,09,11,16.70
2018,06,24,09,12,16.80
2018,06,24,09,13,16.80
2018,06,24,09,14,16.90
2018,06,24,09,15,17.00
2018,06,24,09,16,17.00
2018,06,24,09,17,17.10
2018,06,24,09,18,17.20
2018,06,24,09,19,17.20
2018,06,24,09,20,17.30
2018,06,24,09,21,17.30
2018,06,24,09,22,17.40
2018,06,24,09,23,17.40
2018,06,24,09,24,17.50
2018,06,24,09,25,17.50
2018,06,24,09,26,17.60
2018,06,24,09,27,17.60
2018,06,24,09,28,17.60
2018,06,24,09,29,17.70
2018,06,24,09,30,17.70
2018,06,24,09,31,17.70
2018,06,24,09,32,17.80
2018,06,24,09,33,17.80
2018,06,24,09,34,17.90
2018,06,24,09,35,17.90
2018,06,24,09,36,17.90
2018,06,24,09,37,17.90
2018,06,24,09,38,17.90
2018,06,24,09,39,17.90
2018,06,24,09,40,17.90
2018,06,24,09,41,18.00
2018,06,24,09,42,18.00
2018,06,24,09,43,18.00
2018,06,24,09,44,18.10
2018,06,24,09,45,18.10
2018,06,24,09,46,18.10
2018,06,24,09,47,18.10
2018,06,24,09,48,18.10
2018,06,24,09,49,18.10
2018,06,24,09,50,18.20
2018,06,24,09,51,18.20
2018,06,24,09,52,18.20
2018,06,24,09,53,18.20
2018,06,24,09,54,18.20
2018,06,24,09,55,18.20
2018,06,24,09,56,18.20
2018,06,24,09,57,18.20
2018,06,24,09,58,18.20
2018,06,24,09,59,18.30
2018,06,24,10,00,18.30
2018,06,24,10,01,18.30
2018,06,24,10,02,18.30
2018,06,24,10,03,18.30
2018,06,24,10,04,18.40
2018,06,24,10,05,18.40
2018,06,24,10,06,18.50
2018,06,24,10,07,18.50
2018,06,24,10,08,18.60
2018,06,24,10,09,18.70
2018,06,24,10,10,18.70
2018,06,24,10,11,18.80
2018,06,24,10,12,18.80
2018,06,24,10,13,18.90
2018,06,24,10,14,18.90
2018,06,24,10,15,19.00
2018,06,24,10,16,19.00
2018,06,24,10,17,19.10
2018,06,24,10,18,19.10
2018,06,24,10,19,19.10
2018,06,24,10,20,19.20
2018,06,24,10,21,19.20
2018,06,24,10,22,19.30
2018,06,24,10,23,19.30
2018,06,24,10,24,19.40
2018,06,24,10,25,19.50
2018,06,24,10,26,19.60
2018,06,24,10,27,19.60
2018,06,24,10,28,19.70
2018,06,24,10,29,19.80
2018,06,24,10,30,19.80
2018,06,24,10,31,19.90
2018,06,24,10,32,20.00
2018,06,24,10,33,20.10
2018,06,24,10,34,20.10
2018,06,24,10,35,20.00
2018,06,24,10,36,20.10
2018,06,24,10,37,20.10
2018,06,24,10,38,20.10
2018,06,24,10,39,20.20
2018,06,24,10,40,20.30
2018,06,24,10,41,20.30
2018,06,24,10,42,20.40
2018,06,24,10,43,20.40
2018,06,24,10,44,20.40
2018,06,24,10,45,20.40
2018,06,24,10,46,20.50
2018,06,24,10,47,20.50
2018,06,24,10,48,20.60
2018,06,24,10,49,20.60
2018,06,24,10,50,20.70
2018,06,24,10,51,20.60
2018,06,24,10,52,20.60
2018,06,24,10,53,20.70
2018,06,24,10,54,20.70
2018,06,24,10,55,20.70
2018,06,24,10,56,20.80
2018,06,24,10,57,20.80
2018,06,24,10,58,20.80
2018,06,24,10,59,20.80
2018,06,24,11,00,20.80
2018,06,24,11,01,20.80
2018,06,24,11,02,20.90
2018,06,24,11,03,20.90
2018,06,24,11,04,20.90
2018,06,24,11,05,20.80
2018,06,24,11,06,20.70
2018,06,24,11,07,20.70
2018,06,24,11,08,20.60
2018,06,24,11,09,20.50
2018,06,24,11,10,20.50
2018,06,24,11,11,20.40
2018,06,24,11,12,20.40
2018,06,24,11,13,20.30
2018,06,24,11,14,20.30
2018,06,24,11,15,20.20
2018,06,24,11,16,20.20
2018,06,24,11,17,20.10
2018,06,24,11,18,20.10
2018,06,24,11,19,20.00
2018,06,24,11,20,20.00
2018,06,24,11,21,19.90
2018,06,24,11,22,19.90
2018,06,24,11,23,19.90
2018,06,24,11,24,19.80
2018,06,24,11,25,19.80
2018,06,24,11,26,19.80
2018,06,24,11,27,19.80
2018,06,24,11,28,19.80
2018,06,24,11,29,19.80
2018,06,24,11,30,19.80
2018,06,24,11,31,19.80
2018,06,24,11,32,19.70
2018,06,24,11,33,19.60
2018,06,24,11,34,19.60
2018,06,24,11,35,19.50
2018,06,24,11,36,19.50
2018,06,24,11,37,19.50
2018,06,24,11,38,19.50
2018,06,24,11,39,19.60
2018,06,24,11,40,19.60
2018,06,24,11,41,19.70
2018,06,24,11,42,19.80
2018,06,24,11,43,19.90
2018,06,24,11,44,19.90
2018,06,24,11,45,20.00
2018,06,24,11,46,20.10
2018,06,24,11,47,20.30
2018,06,24,11,48,20.40
2018,06,24,11,49,20.50
2018,06,24,11,50,20.70
2018,06,24,11,51,20.80
2018,06,24,11,52,20.90
2018,06,24,11,53,21.00
2018,06,24,11,54,21.10
2018,06,24,11,55,21.20
2018,06,24,11,56,21.20
2018,06,24,11,57,21.20
2018,06,24,11,58,21.30
2018,06,24,11,59,21.30
2018,06,24,12,00,21.20
2018,06,24,12,01,21.20
2018,06,24,12,02,21.20
2018,06,24,12,03,21.20
2018,06,24,12,04,21.20
2018,06,24,12,05,21.20
2018,06,24,12,06,21.20
2018,06,24,12,07,21.30
2018,06,24,12,08,21.30
2018,06,24,12,09,21.40
2018,06,24,12,10,21.50
2018,06,24,12,11,21.60
2018,06,24,12,12,21.70
2018,06,24,12,13,21.80
2018,06,24,12,14,21.80
2018,06,24,12,15,22.00
2018,06,24,12,16,22.10
2018,06,24,12,17,22.20
2018,06,24,12,18,22.30
2018,06,24,12,19,22.40
2018,06,24,12,20,22.40
2018,06,24,12,21,22.40
2018,06,24,12,22,22.40
2018,06,24,12,23,22.40
2018,06,24,12,24,22.40
2018,06,24,12,25,22.40
2018,06,24,12,26,22.30
2018,06,24,12,27,22.30
2018,06,24,12,28,22.20
2018,06,24,12,29,22.20
2018,06,24,12,30,22.20
2018,06,24,12,31,22.20
2018,06,24,12,32,22.20
2018,06,24,12,33,22.20
2018,06,24,12,34,22.20
2018,06,24,12,35,22.20
2018,06,24,12,36,22.10
2018,06,24,12,37,22.10
2018,06,24,12,38,22.00
2018,06,24,12,39,21.90
2018,06,24,12,40,21.90
2018,06,24,12,41,21.90
2018,06,24,12,42,21.80
2018,06,24,12,43,21.80
2018,06,24,12,44,21.80
2018,06,24,12,45,21.80
2018,06,24,12,46,21.70
2018,06,24,12,47,21.70
2018,06,24,12,48,21.60
2018,06,24,12,49,21.50
2018,06,24,12,50,21.40
2018,06,24,12,51,21.40
2018,06,24,12,52,21.30
2018,06,24,12,53,21.30
2018,06,24,12,54,21.30
2018,06,24,12,55,21.20
2018,06,24,12,56,21.20
2018,06,24,12,57,21.20
2018,06,24,12,58,21.20
2018,06,24,12,59,21.10
2018,06,24,13,00,21.10
2018,06,24,13,01,21.10
2018,06,24,13,02,21.00
2018,06,24,13,03,21.00
2018,06,24,13,04,21.00
2018,06,24,13,05,21.00
2018,06,24,13,06,21.00
2018,06,24,13,07,20.90
2018,06,24,13,08,20.90
2018,06,24,13,09,20.80
2018,06,24,13,10,20.80
2018,06,24,13,11,20.80
2018,06,24,13,12,20.80
2018,06,24,13,13,20.80
2018,06,24,13,14,20.80
2018,06,24,13,15,20.80
2018,06,24,13,16,20.80
2018,06,24,13,17,20.80
2018,06,24,13,18,20.80
2018,06,24,13,19,20.90
2018,06,24,13,20,21.00
2018,06,24,13,21,21.10
2018,06,24,13,22,21.20
2018,06,24,13,23,21.20
2018,06,24,13,24,21.30
2018,06,24,13,25,21.40
2018,06,24,13,26,21.60
2018,06,24,13,27,21.70
2018,06,24,13,28,21.80
2018,06,24,13,29,21.90
2018,06,24,13,30,21.90
2018,06,24,13,31,22.00
2018,06,24,13,32,22.10
2018,06,24,13,33,22.10
2018,06,24,13,34,22.20
2018,06,24,13,35,22.20
2018,06,24,13,36,22.20
2018,06,24,13,37,22.30
2018,06,24,13,38,22.30
2018,06,24,13,39,22.30
2018,06,24,13,40,22.40
2018,06,24,13,41,22.40
2018,06,24,13,42,22.40
2018,06,24,13,43,22.40
2018,06,24,13,44,22.40
2018,06,24,13,45,22.40
2018,06,24,13,46,22.40
2018,06,24,13,47,22.40
2018,06,24,13,48,22.40
2018,06,24,13,49,22.40
2018,06,24,13,50,22.40
2018,06,24,13,51,22.40
2018,06,24,13,52,22.40
2018,06,24,13,53,22.40
2018,06,24,13,54,22.50
2018,06,24,13,55,22.50
2018,06,24,13,56,22.60
2018,06,24,13,57,22.70
2018,06,24,13,58,22.80
2018,06,24,13,59,22.80
2018,06,24,14,00,22.90
2018,06,24,14,01,22.90
2018,06,24,14,02,23.00
2018,06,24,14,03,23.10
2018,06,24,14,04,23.20
2018,06,24,14,05,23.20
2018,06,24,14,06,23.20
2018,06,24,14,07,23.30
2018,06,24,14,08,23.30
2018,06,24,14,09,23.40
2018,06,24,14,10,23.50
2018,06,24,14,11,23.60
2018,06,24,14,12,23.70
2018,06,24,14,13,23.70
2018,06,24,14,14,23.80
2018,06,24,14,15,23.90
2018,06,24,14,16,23.90
2018,06,24,14,17,24.00
2018,06,24,14,18,24.00
2018,06,24,14,19,24.00
2018,06,24,14,20,24.10
2018,06,24,14,21,24.00
2018,06,24,14,22,24.00
2018,06,24,14,23,24.10
2018,06,24,14,24,24.10
2018,06,24,14,25,24.10
2018,06,24,14,26,24.20
2018,06,24,14,27,24.40
2018,06,24,14,28,24.40
2018,06,24,14,29,24.50
2018,06,24,14,30,24.50
2018,06,24,14,31,24.60
2018,06,24,14,32,24.70
2018,06,24,14,33,24.70
2018,06,24,14,34,24.80
2018,06,24,14,35,24.80
2018,06,24,14,36,24.90
2018,06,24,14,37,24.90
2018,06,24,14,38,25.00
2018,06,24,14,39,25.00
2018,06,24,14,40,24.90
2018,06,24,14,41,24.90
2018,06,24,14,42,24.80
2018,06,24,14,43,24.70
2018,06,24,14,44,24.70
2018,06,24,14,45,24.70
2018,06,24,14,46,24.70
2018,06,24,14,47,24.70
2018,06,24,14,48,24.70
2018,06,24,14,49,24.60
2018,06,24,14,50,24.60
2018,06,24,14,51,24.70
2018,06,24,14,52,24.70
2018,06,24,14,53,24.70
2018,06,24,14,54,24.70
2018,06,24,14,55,24.70
2018,06,24,14,56,24.80
2018,06,24,14,57,24.80
2018,06,24,14,58,24.80
2018,06,24,14,59,24.80
2018,06,24,15,00,24.80
2018,06,24,15,01,24.80
2018,06,24,15,02,24.80
2018,06,24,15,03,24.80
2018,06,24,15,04,24.80
2018,06,24,15,05,24.80
2018,06,24,15,06,24.80
2018,06,24,15,07,24.80
2018,06,24,15,08,24.80
2018,06,24,15,09,24.70
2018,06,24,15,10,24.60
2018,06,24,15,11,24.60
2018,06,24,15,12,24.60
2018,06,24,15,13,24.50
2018,06,24,15,14,24.40
2018,06,24,15,15,24.40
2018,06,24,15,16,24.30
2018,06,24,15,17,24.10
2018,06,24,15,18,23.90
2018,06,24,15,19,23.70
2018,06,24,15,20,23.40
2018,06,24,15,21,23.00
2018,06,24,15,22,22.70
2018,06,24,15,23,22.30
2018,06,24,15,24,21.90
2018,06,24,15,25,21.70
2018,06,24,15,26,21.50
2018,06,24,15,27,21.30
2018,06,24,15,28,21.20
2018,06,24,15,29,21.00
2018,06,24,15,30,20.80
2018,06,24,15,31,20.50
2018,06,24,15,32,20.30
2018,06,24,15,33,20.10
2018,06,24,15,34,19.90
2018,06,24,15,35,19.80
2018,06,24,15,36,19.60
2018,06,24,15,37,19.40
2018,06,24,15,38,19.20
2018,06,24,15,39,19.00
2018,06,24,15,40,18.80
2018,06,24,15,41,18.70
2018,06,24,15,42,18.50
2018,06,24,15,43,18.40
2018,06,24,15,44,18.30
2018,06,24,15,45,18.30
2018,06,24,15,46,18.30
2018,06,24,15,47,18.30
2018,06,24,15,48,18.30
2018,06,24,15,49,18.30
2018,06,24,15,50,18.20
2018,06,24,15,51,18.20
2018,06,24,15,52,18.10
2018,06,24,15,53,18.10
2018,06,24,15,54,18.00
2018,06,24,15,55,17.90
2018,06,24,15,56,17.90
2018,06,24,15,57,17.80
2018,06,24,15,58,17.80
2018,06,24,15,59,17.80
2018,06,24,16,00,17.80
2018,06,24,16,01,17.80
2018,06,24,16,02,17.80
2018,06,24,16,03,17.80
2018,06,24,16,04,17.80
2018,06,24,16,05,17.80
2018,06,24,16,06,17.80
2018,06,24,16,07,17.90
2018,06,24,16,08,17.90
2018,06,24,16,09,17.90
2018,06,24,16,10,17.90
2018,06,24,16,11,17.80
2018,06,24,16,12,17.80
2018,06,24,16,13,17.80
2018,06,24,16,14,17.90
2018,06,24,16,15,17.90
2018,06,24,16,16,17.90
2018,06,24,16,17,17.90
2018,06,24,16,18,17.90
2018,06,24,16,19,17.90
2018,06,24,16,20,18.00
2018,06,24,16,21,18.00
2018,06,24,16,22,18.10
2018,06,24,16,23,18.10
2018,06,24,16,24,18.10
2018,06,24,16,25,18.10
2018,06,24,16,26,18.10
2018,06,24,16,27,18.10
2018,06,24,16,28,18.20
2018,06,24,16,29,18.20
2018,06,24,16,30,18.30
2018,06,24,16,31,18.30
2018,06,24,16,32,18.40
2018,06,24,16,33,18.50
2018,06,24,16,34,18.50
2018,06,24,16,35,18.60
2018,06,24,16,36,18.70
2018,06,24,16,37,18.70
2018,06,24,16,38,18.80
2018,06,24,16,39,18.90
2018,06,24,16,40,19.00
2018,06,24,16,41,19.10
2018,06,24,16,42,19.10
2018,06,24,16,43,19.20
2018,06,24,16,44,19.20
2018,06,24,16,45,19.30
2018,06,24,16,46,19.30
2018,06,24,16,47,19.40
2018,06,24,16,48,19.50
2018,06,24,16,49,19.50
2018,06,24,16,50,19.60
2018,06,24,16,51,19.60
2018,06,24,16,52,19.70
2018,06,24,16,53,19.80
2018,06,24,16,54,19.80
2018,06,24,16,55,19.80
2018,06,24,16,56,19.90
2018,06,24,16,57,19.90
2018,06,24,16,58,19.90
2018,06,24,16,59,20.00
2018,06,24,17,00,20.00
2018,06,24,17,01,20.00
2018,06,24,17,02,20.10
2018,06,24,17,03,20.10
2018,06,24,17,04,20.20
2018,06,24,17,05,20.20
2018,06,24,17,06,20.20
2018,06,24,17,07,20.30
2018,06,24,17,08,20.30
2018,06,24,17,09,20.30
2018,06,24,17,10,20.30
2018,06,24,17,11,20.30
2018,06,24,17,12,20.30
2018,06,24,17,13,20.30
2018,06,24,17,14,20.30
2018,06,24,17,15,20.30
2018,06,24,17,16,20.30
2018,06,24,17,17,20.40
